Stations météo

réclame
Mon MeteoGroup
Bordeaux/Merignac, France (7510): Température de l'air & dewpoint: 14.10.2018 19:00:00 - 20.10.2018 19:00:00 (CEST)Bordeaux/Merignac, France (7510): Température de l'air 5cm: 14.10.2018 19:00:00 - 20.10.2018 19:00:00 (CEST)Bordeaux/Merignac, France (7510): Température de l'air -20cm & Température de l'air -100cm: 14.10.2018 19:00:00 - 20.10.2018 19:00:00 (CEST)Bordeaux/Merignac, France (7510): Vitesse du vent & gusts: 14.10.2018 19:00:00 - 20.10.2018 19:00:00 (CEST)Bordeaux/Merignac, France (7510): Direction du vent: 14.10.2018 19:00:00 - 20.10.2018 19:00:00 (CEST)Bordeaux/Merignac, France (7510): reduced air pressure: 14.10.2018 19:00:00 - 20.10.2018 19:00:00 (CEST)Bordeaux/Merignac, France (7510): visibility: 14.10.2018 19:00:00 - 20.10.2018 19:00:00 (CEST)Bordeaux/Merignac, France (7510): Quantités de précipitations: 14.10.2018 19:00:00 - 20.10.2018 19:00:00 (CEST)
Date & Time tt [°C] td [°C] tt 5cm [°C] tt -20cm [°C] tt -100cm [°C] ff [km/h] ff [knt] fx [km/h] fx [knt] dd ppp [hPa] vv [km] rr [mm]
20.10.2018 19:00:00 20,6 14,0 19,8 18,9 19,2 10 5 15 8 N 1024,2 20 0,0
20.10.2018 18:00:00 22,3 13,1 24,7 18,8 19,2 7 4 13 7 N 1023,7 22 0,0
20.10.2018 17:00:00 22,6 13,1 26,6 18,5 19,2 9 5 17 9 N 1023,8 21 0,0
20.10.2018 16:00:00 22,3 12,5 26,7 18,1 19,2 9 5 20 11 NNE 1024,3 19 0,0
20.10.2018 15:00:00 21,6 12,4 26,0 17,7 19,2 7 4 18 10 NE 1024,5 19 0,0
20.10.2018 14:00:00 20,6 12,3 23,8 17,2 19,2 3 2 10 6 ESE 1025,1 16 0,0
20.10.2018 13:00:00 18,6 11,9 20,1 16,9 19,2 5 3 13 7 E 1025,5 13 0,0
20.10.2018 12:00:00 16,3 11,7 17,5 16,6 19,2 10 5 22 12 NNE 1025,4 10 0,0
20.10.2018 11:00:00 14,6 11,4 15,4 16,6 19,2 11 6 17 9 NE 1025,4 8 0,0
20.10.2018 10:00:00 12,9 11,3 10,9 16,6 19,3 10 5 16 8 NNE 1025,1 4,1 0,0
20.10.2018 09:00:00 11,1 10,6 9,8 16,8 19,3 7 4 14 8 NNE 1024,5 1,6 0,0
20.10.2018 08:00:00 11,1 10,6 8,1 16,9 19,3 6 3 23 13 NNE 1023,5 0,3 0,0
20.10.2018 07:00:00 11,1 10,5 8,4 17,1 19,3 6 4 23 12 NE 1022,9 0,5 0,0
20.10.2018 06:00:00 11,8 11,0 8,6 17,2 19,2 6 4 17 9 NNE 1022,5 2,2 0,0
20.10.2018 05:00:00 11,6 10,5 9,0 17,4 19,3 4 2 9 5 NNE 1021,9 0,3 0,0
20.10.2018 04:00:00 12,7 11,3 11,7 17,6 19,3 5 3 16 9 NNE 1022,0 3,7 0,0
20.10.2018 03:00:00 13,2 11,4 11,6 17,8 19,3 8 4 11 6 N 1021,9 6 0,0
20.10.2018 02:00:00 13,8 11,3 11,7 17,9 19,3 6 3 16 9 NNE 1022,0 6 0,0
20.10.2018 01:00:00 14,3 11,6 12,8 18,1 19,3 11 6 16 8 N 1021,9 8 0,0
20.10.2018 00:00:00 14,8 11,9 13,8 18,3 19,3 10 5 16 9 NNE 1021,9 9 0,0
19.10.2018 23:00:00 15,9 12,3 15,1 18,4 19,3 14 7 22 12 NE 1021,7 9 0,0
19.10.2018 22:00:00 16,2 12,6 15,3 18,6 19,3 15 8 33 18 NNE 1021,7 11 0,0
19.10.2018 21:00:00 17,3 12,8 15,9 18,8 19,3 14 8 29 16 N 1021,0 14 0,0
19.10.2018 20:00:00 18,3 12,9 15,2 18,9 19,3 13 7 22 12 N 1020,0 18 0,0
19.10.2018 19:00:00 20,6 12,8 19,4 19,0 19,3 8 4 21 12 N 1018,9 26 0,0
19.10.2018 18:00:00 21,7 12,8 23,6 18,9 19,4 16 9 26 14 NNE 1018,7 24 0,0
19.10.2018 17:00:00 22,2 12,2 25,4 18,7 19,3 18 10 28 15 NNE 1018,6 21 0,0
19.10.2018 16:00:00 21,8 11,8 25,5 18,3 19,4 16 9 23 12 NNE 1018,5 19 0,0
19.10.2018 15:00:00 21,1 12,0 24,9 17,9 19,4 14 8 23 12 NNE 1018,6 20 0,0
19.10.2018 14:00:00 20,0 12,5 23,6 17,5 19,4 12 6 20 11 NNE 1019,2 18 0,0
19.10.2018 13:00:00 18,4 12,6 21,1 17,2 19,4 8 4 19 10 NE 1019,8 14 0,0
19.10.2018 12:00:00 16,9 12,0 18,3 16,9 19,4 8 5 19 11 NE 1019,7 12 0,0
19.10.2018 11:00:00 15,6 12,0 16,3 16,8 19,4 9 5 22 12 ENE 1019,3 11 0,0
19.10.2018 10:00:00 14,1 11,8 13,4 16,9 19,5 15 8 21 11 NNE 1018,3 6 0,0
19.10.2018 09:00:00 12,5 11,4 11,4 17,0 19,4 7 4 15 8 NNE 1017,9 4,4 0,0
19.10.2018 08:00:00 12,2 11,1 11,3 17,1 19,4 10 5 16 9 NNE 1017,7 6 0,0
19.10.2018 07:00:00 12,4 11,1 11,1 17,3 19,4 7 4 14 8 NNE 1017,8 7 0,0
19.10.2018 06:00:00 12,7 11,1 11,7 17,4 19,4 8 5 11 6 N 1017,9 10 0,0
19.10.2018 05:00:00 13,2 11,3 11,9 17,6 19,4 6 4 9 5 N 1017,5 11 0,0
19.10.2018 04:00:00 13,7 11,4 12,6 17,7 19,4 7 4 9 5 NNE 1017,4 12 0,0
19.10.2018 03:00:00 14,1 11,8 12,8 17,9 19,5 8 4 10 6 N 1017,4 12 0,0
19.10.2018 02:00:00 14,2 12,1 12,4 18,0 19,4 7 4 10 6 NNE 1017,2 12 0,0
19.10.2018 01:00:00 14,3 12,0 12,3 18,2 19,5 5 3 8 4 N 1017,2 9 0,0
19.10.2018 00:00:00 14,6 12,6 11,9 18,3 19,5 5 3 8 4 N 1017,0 4,0 0,0
18.10.2018 23:00:00 15,9 13,2 12,8 18,5 19,5 5 3 11 6 N 1017,0 10 0,0
18.10.2018 22:00:00 16,2 13,5 13,8 18,7 19,5 6 4 16 9 N 1016,8 12 0,0
18.10.2018 21:00:00 16,5 14,0 13,6 18,8 19,5 7 4 16 9 N 1016,5 14 0,0
18.10.2018 20:00:00 17,2 13,5 14,2 18,9 19,5 0 0 9 5 N 1016,1 10 0,0
18.10.2018 19:00:00 19,9 13,4 17,8 18,9 19,5 5 3 20 11 N 1015,3 20 0,0
18.10.2018 18:00:00 21,4 13,3 22,3 18,9 19,5 8 5 25 14 N 1015,2 31 0,0
18.10.2018 17:00:00 21,3 12,7 22,6 18,7 19,5 13 7 24 13 NE 1015,2 27 0,0
18.10.2018 16:00:00 21,0 13,4 24,2 18,4 19,5 14 8 23 12 N 1015,2 17 0,0
18.10.2018 15:00:00 20,0 14,6 21,1 18,2 19,5 15 8 21 11 NNE 1015,6 20 0,0
18.10.2018 14:00:00 19,0 15,3 19,9 17,9 19,5 8 4 14 8 N 1016,0 20 0,0
18.10.2018 13:00:00 18,4 15,6 19,7 17,8 19,6 11 6 18 10 NNE 1016,7 14 0,0
18.10.2018 12:00:00 17,9 15,9 17,0 17,5 19,6 5 3 20 11 N 1016,7 11 0,0
18.10.2018 11:00:00 16,7 15,4 15,6 17,4 19,6 5 3 11 6 ENE 1016,7 9 0,0
18.10.2018 10:00:00 15,5 15,0 14,6 17,5 19,6 8 4 14 8 NE 1016,6 6 0,0
18.10.2018 09:00:00 14,9 14,6 13,7 17,5 19,6 6 3 14 8 ENE 1016,1 3,5 0,6
18.10.2018 08:00:00 14,0 13,7 11,6 17,6 19,6 0 0 13 7 N 1015,6 3,4 0,0
18.10.2018 07:00:00 13,5 13,0 11,7 17,7 19,6 0 0 9 5 N 1015,5 0,2 0,0
18.10.2018 06:00:00 14,1 13,6 11,7 17,8 19,6 3 1 6 4 WNW 1015,0 0,1 0,0
18.10.2018 05:00:00 14,3 13,7 13,3 17,9 19,6 5 3 10 5 NE 1015,0 0,8 0,0
18.10.2018 04:00:00 14,7 13,9 13,9 18,0 19,6 6 4 11 6 N 1015,1 4,2 0,0
18.10.2018 03:00:00 15,2 14,1 14,7 18,0 19,6 4 2 7 4 N 1015,5 9 0,0
18.10.2018 02:00:00 14,8 13,5 14,6 18,1 19,6 2 1 8 5 WSW 1016,0 10 0,0
18.10.2018 01:00:00 15,1 14,0 12,3 18,2 19,6 3 2 7 4 NW 1016,1 7 0,0
18.10.2018 00:00:00 14,1 13,0 11,7 18,4 19,6 3 2 7 4 N 1016,4 0,3 0,0
17.10.2018 23:00:00 15,2 13,6 13,8 18,5 19,6 4 2 12 6 N 1016,5 0,7 0,0
17.10.2018 22:00:00 15,5 13,9 14,5 18,7 19,6 7 4 14 8 N 1016,3 11 0,0
17.10.2018 21:00:00 15,9 14,3 14,7 18,8 19,6 10 5 16 9 N 1016,2 11 0,0
17.10.2018 20:00:00 16,3 14,3 14,9 18,9 19,6 5 3 16 9 N 1016,0 15 0,0
17.10.2018 19:00:00 17,5 14,8 16,9 18,9 19,7 9 5 16 8 N 1015,6 24 0,0
17.10.2018 18:00:00 18,8 14,3 19,5 18,8 19,7 8 5 14 8 N 1015,2 31 0,0
17.10.2018 17:00:00 18,9 14,4 19,0 18,7 19,7 3 2 13 7 N 1015,5 31 0,0
17.10.2018 16:00:00 17,7 14,6 18,3 18,6 19,7 4 2 13 7 ESE 1016,1 32 0,0
17.10.2018 15:00:00 17,4 14,9 18,1 18,4 19,7 8 4 16 8 ESE 1016,5 20 0,0
17.10.2018 14:00:00 17,6 14,7 19,1 18,2 19,7 13 7 17 9 ESE 1017,0 27 0,0
17.10.2018 13:00:00 18,0 14,3 18,8 17,9 19,7 4 2 13 7 NE 1017,7 20 0,0
17.10.2018 12:00:00 17,2 14,1 16,1 17,7 19,7 3 2 9 5 NE 1018,2 20 0,0
17.10.2018 11:00:00 14,8 13,0 14,9 17,7 19,7 5 3 14 7 N 1018,5 20 0,0
17.10.2018 10:00:00 14,4 12,4 14,1 17,7 19,7 8 4 14 7 NE 1018,6 45 0,0
17.10.2018 09:00:00 14,0 12,4 13,7 17,8 19,7 6 3 18 10 NNE 1018,6 58 0,0
17.10.2018 08:00:00 13,6 12,2 13,4 17,8 19,7 7 4 15 8 N 1018,6 59 0,0
17.10.2018 07:00:00 13,4 12,0 12,5 17,9 19,7 6 3 12 6 N 1018,8 59 0,0
17.10.2018 06:00:00 13,2 11,8 12,5 18,0 19,7 5 3 13 7 WNW 1018,7 55 0,0
17.10.2018 05:00:00 13,7 12,1 13,0 18,1 19,8 5 3 11 6 NW 1018,6 53 0,0
17.10.2018 04:00:00 14,0 12,0 13,4 18,2 19,8 7 4 11 6 N 1018,9 60 0,0
17.10.2018 03:00:00 14,4 12,1 14,3 18,3 19,8 8 4 11 6 N 1019,2 60 0,0
17.10.2018 02:00:00 14,4 11,9 14,3 18,4 19,8 8 4 11 6 N 1019,5 58 0,0
17.10.2018 01:00:00 14,5 11,8 14,1 18,5 19,8 6 3 12 7 N 1019,9 59 0,0
17.10.2018 00:00:00 14,3 11,8 13,9 18,6 19,8 5 3 10 6 N 1020,3 52 0,0
16.10.2018 23:00:00 14,2 11,5 13,4 18,8 19,8 5 3 17 9 N 1020,3 60 0,0
16.10.2018 22:00:00 14,8 11,9 13,7 19,0 19,8 7 4 14 7 NNW 1020,0 46 0,0
16.10.2018 21:00:00 15,8 12,5 13,3 19,2 19,8 8 4 16 9 NW 1019,5 60 0,0
16.10.2018 20:00:00 17,1 12,8 15,5 19,3 19,8 5 3 15 8 NNW 1019,1 60 0,0
16.10.2018 19:00:00 18,5 12,9 18,8 19,3 19,8 10 6 19 10 N 1018,6 60 0,0
16.10.2018 18:00:00 19,4 13,3 19,8 19,3 19,9 13 7 19 11 N 1018,3 60 0,0
16.10.2018 17:00:00 20,0 13,5 20,9 19,1 19,9 13 7 19 11 N 1018,0 60 0,0
16.10.2018 16:00:00 20,9 12,6 22,2 18,9 19,9 11 6 17 9 N 1017,9 49 0,0
16.10.2018 15:00:00 20,0 12,5 21,5 18,5 19,9 11 6 19 11 NNW 1017,8 58 0,0
16.10.2018 14:00:00 19,9 12,6 23,9 18,0 19,9 9 5 23 12 NNE 1017,9 46 0,0
16.10.2018 13:00:00 19,0 12,7 21,6 17,6 19,9 10 6 18 10 N 1018,1 50 0,0
16.10.2018 12:00:00 17,8 12,9 20,7 17,3 19,9 11 6 15 8 N 1017,8 53 0,0
16.10.2018 11:00:00 15,9 13,4 15,2 17,2 19,9 5 3 16 9 N 1017,6 46 0,0
16.10.2018 10:00:00 13,4 12,3 13,2 17,2 20,0 8 4 15 8 NE 1017,4 21 0,0
16.10.2018 09:00:00 11,5 11,5 8,3 17,4 19,9 3 1 8 4 NW 1016,7 0,5 0,0
16.10.2018 08:00:00 11,0 10,7 8,8 17,5 20,0 3 2 11 6 NNE 1015,8 0,2 0,0
16.10.2018 07:00:00 11,3 11,1 9,7 17,7 19,9 3 1 16 9 ENE 1015,5 0,1 0,0
16.10.2018 06:00:00 11,7 11,5 11,1 17,8 20,0 5 3 10 6 NNE 1015,1 0,2 0,2
16.10.2018 05:00:00 11,9 11,7 11,5 17,9 20,0 5 3 11 6 NNE 1014,9 0,2 0,0
16.10.2018 04:00:00 12,3 12,3 12,1 18,1 20,0 9 5 11 6 NNE 1014,8 0,1 0,0
16.10.2018 03:00:00 12,4 12,2 12,3 18,2 20,0 7 4 9 5 NE 1014,4 0,1 0,0
16.10.2018 02:00:00 12,6 12,4 11,2 18,4 20,0 8 4 10 5 NE 1013,9 0,2 0,0
16.10.2018 01:00:00 12,2 11,7 9,6 18,6 20,0 5 3 9 5 NE 1013,8 0,1 0,0
16.10.2018 00:00:00 12,6 12,0 10,3 18,8 20,0 5 3 7 4 NNE 1013,4 1,1 0,0
15.10.2018 23:00:00 13,4 12,5 10,9 19,0 20,0 0 0 13 7 N 1012,9 0,7 0,0
15.10.2018 22:00:00 14,3 13,0 13,5 19,2 20,0 6 4 18 10 ENE 1012,3 20 0,0
15.10.2018 21:00:00 15,0 13,0 14,4 19,4 20,0 12 6 19 10 NE 1011,4 60 0,0
15.10.2018 20:00:00 15,7 12,3 15,1 19,5 20,0 11 6 16 9 NE 1011,0 60 0,0
15.10.2018 19:00:00 17,4 11,7 17,2 19,5 20,0 9 5 15 8 N 1009,9 60 0,0
15.10.2018 18:00:00 18,2 11,7 18,2 19,5 20,1 5 3 12 7 N 1009,6 59 0,0
15.10.2018 17:00:00 17,3 11,8 18,4 19,4 20,1 2 1 30 16 E 1009,0 51 0,0
15.10.2018 16:00:00 17,2 12,5 17,9 19,3 20,1 3 2 9 5 NE 1009,0 60 0,0
15.10.2018 15:00:00 17,5 12,4 19,3 19,0 20,1 6 3 15 8 NW 1008,7 60 0,0
15.10.2018 14:00:00 16,6 13,3 17,2 18,7 20,1 4 2 12 6 WNW 1008,6 56 0,0
15.10.2018 13:00:00 15,7 11,9 16,0 18,5 20,1 3 2 18 10 NNW 1008,8 58 0,0
15.10.2018 12:00:00 14,9 12,9 14,6 18,4 20,1 8 4 14 8 N 1008,6 60 0,0
15.10.2018 11:00:00 14,3 12,5 14,1 18,3 20,1 8 5 14 7 NNE 1008,5 48 0,2
15.10.2018 10:00:00 13,8 13,2 13,4 18,4 20,1 0 0 11 6 N 1008,2 19 0,4
15.10.2018 09:00:00 13,6 13,0 13,3 18,5 20,1 5 3 8 4 N 1007,9 12 0,6
15.10.2018 08:00:00 13,6 13,1 13,4 18,6 20,1 3 2 9 5 WNW 1007,8 4,3 0,2
15.10.2018 07:00:00 13,6 13,0 13,4 18,7 20,1 2 1 8 4 NW 1007,7 16 0,2
15.10.2018 06:00:00 13,8 13,3 13,6 18,8 20,1 0 0 6 3 N 1007,9 11 0,6
15.10.2018 05:00:00 13,9 13,4 13,7 18,9 20,1 4 2 5 3 WSW 1008,2 8 0,6
15.10.2018 04:00:00 13,9 13,4 13,6 19,0 20,1 3 1 6 4 SE 1008,9 13 0,2
15.10.2018 03:00:00 13,9 13,4 13,7 19,2 20,1 5 3 9 5 S 1009,0 20 0,2
15.10.2018 02:00:00 14,0 13,5 13,6 19,3 20,1 6 4 9 5 SW 1009,2 16 0,0
15.10.2018 01:00:00 14,2 13,6 13,2 19,5 20,1 6 3 7 4 SW 1009,2 0,8 0,0
15.10.2018 00:00:00 14,7 13,7 14,2 19,6 20,1 6 4 9 5 W 1009,0 35 0,0
14.10.2018 23:00:00 14,8 14,0 14,5 19,8 20,1 6 3 22 12 WNW 1008,7 51 0,0
14.10.2018 22:00:00 15,2 14,4 14,9 20,0 20,1 12 7 25 13 W 1008,5 7 0,7
14.10.2018 21:00:00 15,6 15,0 15,3 20,1 20,1 13 7 23 13 W 1008,0 17 1,0
14.10.2018 20:00:00 15,9 15,3 15,5 20,3 20,1 19 10 35 19 W 1006,9 11 2,2
14.10.2018 19:00:00 17,1 16,6 16,6 20,5 20,1 14 8 24 13 WSW 1006,0 8 2,4

tt = Température de l'air
td = dewpoint
tt 5cm = Température de l'air 5cm
tt -20cm = Température de l'air -20cm
tt -100cm = Température de l'air -100cm
ff = Vitesse du vent
fx = gusts
dd = Direction du vent
ppp = reduced air pressure
vv = visibility
rr = Quantités de précipitations

stations d'obs. à proximité